Location: Red Deer
(52.2681°N, 113.8112°W)
Time: 19:50:26
(UTC-07:00)

N. Korean satellite - Pass Details

Date: 04 December 2022
Orbit: 407 x 441 km, 97.3° (Epoch: 05 February)

Event Time Altitude Azimuth Distance (km) Brightness Sun altitude
Rises 05:42:22 0° 18° (NNE) 2,527 10.3 -23.9°
Reaches altitude 10° 05:44:30 10° 24° (NNE) 1,640 9.4 -23.6°
Maximum altitude 05:47:55 46° 99° (E) 633 7.5 -23.1°
Drops below altitude 10° 05:51:21 - 175° (S) 1,646 9.4 -22.6°
Sets 05:53:19 0° 181° (S) 2,465 10.2 -22.3°
